Simultaneous Nadir Overpasses (SNOs) Predictions

Prediction of SNOs between FY3D and TERRA Satellite Orbit:

Table of predicted SNOs for the next 14.0 days since TLE Epoch: 3/23/2024
Index Date (FY3D) Time (FY3D) Lat,Lon (FY3D) SZA (FY3D ) Date (TERRA) Time (TERRA) Lat,Lon (TERRA) SZA (TERRA ) Distance(km) Time Diff (sec)
1 03/24/2024 05:36:45 75.22, 95.87 73.52 03/24/2024 05:37:50 75.24, 95.85 73.54 2.45 65
2 03/24/2024 06:27:28 -75.16, -96.64 106.56 03/24/2024 06:27:14 -75.15, -96.73 106.57 2.92 14
3 03/26/2024 17:40:31 -75.22, 94.98 107.47 03/26/2024 17:40:56 -75.23, 95.02 107.46 2.20 25
4 03/26/2024 18:31:16 75.14, -97.48 72.44 03/26/2024 18:30:18 75.17, -97.49 72.47 3.40 58
5 03/29/2024 04:53:34 -75.28, -73.44 108.36 03/29/2024 04:54:38 -75.27, -73.35 108.38 3.16 64
6 03/29/2024 05:44:19 75.21, 94.10 71.55 03/29/2024 05:44:00 75.21, 94.15 71.55 1.31 19
7 03/31/2024 16:57:21 75.24, -74.21 70.63 03/31/2024 16:57:41 75.25, -74.20 70.63 1.06 20
8 03/31/2024 17:48:04 -75.18, 93.29 109.45 03/31/2024 17:47:04 -75.20, 93.34 109.43 2.95 60
9 04/03/2024 04:10:22 75.29, 117.44 69.72 04/03/2024 04:11:20 75.30, 117.48 69.73 1.66 58
10 04/03/2024 05:01:05 -75.23, -75.06 110.36 04/03/2024 05:00:43 -75.25, -74.99 110.33 3.27 22
11 04/05/2024 16:14:07 -75.29, 116.55 111.24 04/05/2024 16:14:23 -75.25, 116.56 111.27 3.74 16



Historial Predications of SNOs between FY3D and TERRA
